Helena, Arkansas, United States (72342)
Lat: 34.53N, Lon: 90.59W
Wx Zone: ARZ058
Local Info
Past Weather Observations for Tuesday, October 28, 2014

NOTE: This archive is for the closest National Weather Service station to Helena. Information may differ from the station used for current weather conditions.

Click here for Long-term Archive

Time Weather Temperature Dewpoint Humidity Pressure Winds Precip Visibility
23:55
Overcast
55°F / 13°C 54°F / 12°C 94% 30.12 in
(1020 mb)
N 13.8 mph
(N 22 kph)
0.01 in
(0.25 mm)
10SM
23:35
Mostly Cloudy
Light Rain
55°F / 13°C 54°F / 12°C 94% 30.12 in
(1020 mb)
N 10.4 mph
(N 17 kph)
0.01 in
(0.25 mm)
10SM
23:15
Mostly Cloudy
Light Rain
55°F / 13°C 54°F / 12°C 94% 30.12 in
(1020 mb)
NNE 8.1 mph
(NNE 13 kph)
- 10SM
22:55
Overcast
Light Rain
55°F / 13°C 54°F / 12°C 94% 30.12 in
(1020 mb)
N 10.4 mph
(N 17 kph)
0.03 in
(0.76 mm)
10SM
22:35
Overcast
Rain
55°F / 13°C 54°F / 12°C 94% 30.12 in
(1020 mb)
N 8.1 mph
(N 13 kph)
0.01 in
(0.25 mm)
10SM
22:15
Overcast
55°F / 13°C 55°F / 13°C 100% 30.12 in
(1020 mb)
Calm - 10SM
21:55
Overcast
Thunder Storms
55°F / 13°C 54°F / 12°C 94% 30.12 in
(1020 mb)
N 11.5 mph
(N 19 kph)
0.10 in
(2.54 mm)
10SM
21:35
Overcast
Rain
55°F / 13°C 54°F / 12°C 94% 30.12 in
(1020 mb)
N 12.7 mph
(N 20 kph)
0.07 in
(1.78 mm)
7SM
21:15
Overcast
55°F / 13°C 54°F / 12°C 94% 30.12 in
(1020 mb)
NNW 11.5 mph
(NNW 19 kph)
0.03 in
(0.76 mm)
10SM
20:55
Overcast
55°F / 13°C 54°F / 12°C 94% 30.09 in
(1019 mb)
NNE 8.1 mph
(NNE 13 kph)
0.01 in
(0.25 mm)
10SM
20:35
Overcast
55°F / 13°C 54°F / 12°C 94% 30.09 in
(1019 mb)
N 6.9 mph
(N 11 kph)
0.01 in
(0.25 mm)
10SM
20:15
Mostly Cloudy
55°F / 13°C 54°F / 12°C 94% 30.09 in
(1019 mb)
NE 11.5 mph
(NE 19 kph)
0.01 in
(0.25 mm)
10SM
19:55
Overcast
55°F / 13°C 54°F / 12°C 94% 30.09 in
(1019 mb)
N 10.4 mph
(N 17 kph)
0.05 in
(1.27 mm)
10SM
19:35
Overcast
Light Rain
55°F / 13°C 54°F / 12°C 94% 30.06 in
(1018 mb)
NE 16.1 mph
(NE 26 kph)
0.05 in
(1.27 mm)
7SM
19:15
Overcast
Thunder Storms
55°F / 13°C 54°F / 12°C 94% 30.06 in
(1018 mb)
NE 8.1 mph
(NE 13 kph)
0.01 in
(0.25 mm)
10SM
18:55
Overcast
Thunder Storms
57°F / 14°C 55°F / 13°C 94% 30.06 in
(1018 mb)
N 10.4 mph
(N 17 kph)
0.02 in
(0.51 mm)
10SM
18:35
Overcast
Rain
57°F / 14°C 55°F / 13°C 94% 30.09 in
(1019 mb)
NNW 12.7 mph
(NNW 20 kph)
0.01 in
(0.25 mm)
10SM
18:15
Overcast
Light Rain
57°F / 14°C 55°F / 13°C 94% 30.06 in
(1018 mb)
NNW 12.7 mph
(NNW 20 kph)
0.01 in
(0.25 mm)
10SM
17:55
Overcast
Rain
59°F / 15°C 57°F / 14°C 94% 30.06 in
(1018 mb)
NNW 11.5 mph
(NNW 19 kph)
0.03 in
(0.76 mm)
10SM
17:35
Overcast
Thunder Storms
61°F / 16°C 59°F / 15°C 94% 30.04 in
(1017 mb)
NNW 11.5 mph
(NNW 19 kph)
0.02 in
(0.51 mm)
7SM
17:15
Mostly Cloudy
Thunder Storms
64°F / 18°C 64°F / 18°C 100% 30.04 in
(1017 mb)
Calm - 10SM
16:55
Mostly Cloudy
Thunder Storms
64°F / 18°C 64°F / 18°C 100% 30.01 in
(1016 mb)
Calm 0.01 in
(0.25 mm)
10SM
16:35
Overcast
Thunder Storms
66°F / 19°C 64°F / 18°C 94% 30.04 in
(1017 mb)
Calm 0.01 in
(0.25 mm)
7SM
16:15
Mostly Cloudy
66°F / 19°C 64°F / 18°C 94% 30.04 in
(1017 mb)
Calm - 10SM
15:55
Overcast
Light Rain
66°F / 19°C 64°F / 18°C 94% 30.04 in
(1017 mb)
SE 3.5 mph
(SE 6 kph)
0.02 in
(0.51 mm)
10SM
15:35
Mostly Cloudy
68°F / 20°C 64°F / 18°C 88% 30.04 in
(1017 mb)
SSE 4.6 mph
(SSE 7 kph)
- 10SM
15:15
Clear
Thunder Storms
68°F / 20°C 64°F / 18°C 88% 30.04 in
(1017 mb)
SE 5.8 mph
(SE 9 kph)
- 10SM
14:55
Clear
68°F / 20°C 64°F / 18°C 88% 30.04 in
(1017 mb)
S 4.6 mph
(S 7 kph)
- 10SM
14:35
Clear
68°F / 20°C 64°F / 18°C 88% 30.04 in
(1017 mb)
S 9.2 mph
(S 15 kph)
- 10SM
14:15
Partly Cloudy
68°F / 20°C 64°F / 18°C 88% 30.04 in
(1017 mb)
S 8.1 mph
(S 13 kph)
- 10SM
13:55
Overcast
Thunder Storms
66°F / 19°C 64°F / 18°C 94% 30.04 in
(1017 mb)
S 6.9 mph
(S 11 kph)
0.07 in
(1.78 mm)
5SM
13:35
Overcast
Light Rain
68°F / 20°C 64°F / 18°C 88% 30.04 in
(1017 mb)
S 11.5 mph
(S 19 kph)
0.03 in
(0.76 mm)
7SM
13:15
Overcast
68°F / 20°C 64°F / 18°C 88% 30.01 in
(1016 mb)
SSE 9.2 mph
(SSE 15 kph)
0.01 in
(0.25 mm)
7SM
12:55
Overcast
Rain
68°F / 20°C 64°F / 18°C 88% 30.06 in
(1018 mb)
SW 10.4 mph
(SW 17 kph)
0.06 in
(1.52 mm)
5SM
12:35
Overcast
Rain
70°F / 21°C 64°F / 18°C 83% 30.06 in
(1018 mb)
SW 9.2 mph
(SW 15 kph)
- 10SM
12:15
Overcast
Drizzle
70°F / 21°C 64°F / 18°C 83% 30.06 in
(1018 mb)
SSE 6.9 mph
(SSE 11 kph)
- 10SM
11:55
Mostly Cloudy
Light Rain
72°F / 22°C 66°F / 19°C 83% 30.06 in
(1018 mb)
SW 9.2 mph
(SW 15 kph)
- 5SM
11:35
Partly Cloudy
72°F / 22°C 64°F / 18°C 78% 30.06 in
(1018 mb)
SW 9.2 mph
(SW 15 kph)
- 10SM
11:15
Partly Cloudy
72°F / 22°C 64°F / 18°C 78% 30.09 in
(1019 mb)
SW 9.2 mph
(SW 15 kph)
- 10SM
10:55
Partly Cloudy
72°F / 22°C 64°F / 18°C 78% 30.06 in
(1018 mb)
SSE 9.2 mph
(SSE 15 kph)
- 10SM
10:35
Partly Cloudy
72°F / 22°C 64°F / 18°C 78% 30.06 in
(1018 mb)
SSE 9.2 mph
(SSE 15 kph)
- 10SM
10:15
Partly Cloudy
70°F / 21°C 64°F / 18°C 83% 30.09 in
(1019 mb)
SSE 8.1 mph
(SSE 13 kph)
- 10SM
09:55
Partly Cloudy
70°F / 21°C 64°F / 18°C 83% 30.06 in
(1018 mb)
S 8.1 mph
(S 13 kph)
- 10SM
09:35
Mostly Cloudy
68°F / 20°C 64°F / 18°C 88% 30.06 in
(1018 mb)
S 8.1 mph
(S 13 kph)
- 10SM
09:15
Partly Cloudy
70°F / 21°C 64°F / 18°C 83% 30.06 in
(1018 mb)
S 13.8 mph
(S 22 kph)
- 10SM
08:55
Mostly Cloudy
68°F / 20°C 63°F / 17°C 83% 30.06 in
(1018 mb)
SSE 10.4 mph
(SSE 17 kph)
- 10SM
08:35
Mostly Cloudy
68°F / 20°C 63°F / 17°C 83% 30.06 in
(1018 mb)
S 8.1 mph
(S 13 kph)
- 10SM
08:15
Mostly Cloudy
66°F / 19°C 63°F / 17°C 88% 30.06 in
(1018 mb)
SSE 9.2 mph
(SSE 15 kph)
- 10SM
07:55
Mostly Cloudy
66°F / 19°C 63°F / 17°C 88% 30.06 in
(1018 mb)
SSE 6.9 mph
(SSE 11 kph)
- 10SM
07:35
Partly Cloudy
64°F / 18°C 63°F / 17°C 94% 30.06 in
(1018 mb)
S 8.1 mph
(S 13 kph)
- 7SM
07:15
Mostly Cloudy
64°F / 18°C 63°F / 17°C 94% 30.06 in
(1018 mb)
S 8.1 mph
(S 13 kph)
- 7SM
06:55
Partly Cloudy
64°F / 18°C 63°F / 17°C 94% 30.04 in
(1017 mb)
S 8.1 mph
(S 13 kph)
- 7SM
06:35
Mostly Cloudy
64°F / 18°C 63°F / 17°C 94% 30.04 in
(1017 mb)
S 8.1 mph
(S 13 kph)
- 7SM
06:15
Overcast
64°F / 18°C 61°F / 16°C 88% 30.04 in
(1017 mb)
S 9.2 mph
(S 15 kph)
- 10SM
05:55
Mostly Cloudy
64°F / 18°C 61°F / 16°C 88% 30.04 in
(1017 mb)
S 9.2 mph
(S 15 kph)
- 10SM
05:35
Clear
64°F / 18°C 61°F / 16°C 88% 30.01 in
(1016 mb)
S 8.1 mph
(S 13 kph)
- 10SM
05:15
Clear
63°F / 17°C 61°F / 16°C 94% 30.01 in
(1016 mb)
S 8.1 mph
(S 13 kph)
- 10SM
04:55
Partly Cloudy
63°F / 17°C 61°F / 16°C 94% 30.01 in
(1016 mb)
S 8.1 mph
(S 13 kph)
- 10SM
04:35
Partly Cloudy
63°F / 17°C 61°F / 16°C 94% 30.01 in
(1016 mb)
S 9.2 mph
(S 15 kph)
- 10SM
04:15
Clear
63°F / 17°C 61°F / 16°C 94% 30.01 in
(1016 mb)
S 8.1 mph
(S 13 kph)
- 10SM
03:55
Partly Cloudy
63°F / 17°C 61°F / 16°C 94% 30.01 in
(1016 mb)
S 6.9 mph
(S 11 kph)
- 10SM
03:35
Partly Cloudy
63°F / 17°C 59°F / 15°C 88% 30.01 in
(1016 mb)
S 5.8 mph
(S 9 kph)
- 10SM
03:15
Clear
63°F / 17°C 59°F / 15°C 88% 30.01 in
(1016 mb)
S 5.8 mph
(S 9 kph)
- 10SM
02:55
Partly Cloudy
63°F / 17°C 59°F / 15°C 88% 30.01 in
(1016 mb)
S 6.9 mph
(S 11 kph)
- 10SM
02:35
Mostly Cloudy
63°F / 17°C 59°F / 15°C 88% 30.01 in
(1016 mb)
S 5.8 mph
(S 9 kph)
- 10SM
02:15
Mostly Cloudy
64°F / 18°C 61°F / 16°C 88% 29.98 in
(1015 mb)
S 5.8 mph
(S 9 kph)
- 10SM
01:55
Partly Cloudy
61°F / 16°C 59°F / 15°C 94% 29.98 in
(1015 mb)
S 5.8 mph
(S 9 kph)
- 10SM
01:35
Clear
63°F / 17°C 59°F / 15°C 88% 29.98 in
(1015 mb)
S 6.9 mph
(S 11 kph)
- 10SM
01:15
Clear
61°F / 16°C 59°F / 15°C 94% 29.98 in
(1015 mb)
S 8.1 mph
(S 13 kph)
- 10SM
00:55
Clear
61°F / 16°C 57°F / 14°C 88% 29.98 in
(1015 mb)
S 8.1 mph
(S 13 kph)
- 10SM
00:35
Clear
63°F / 17°C 59°F / 15°C 88% 29.98 in
(1015 mb)
S 8.1 mph
(S 13 kph)
- 10SM
00:15
Clear
63°F / 17°C 59°F / 15°C 88% 29.98 in
(1015 mb)
S 5.8 mph
(S 9 kph)
- 10SM
Time Weather Temperature Dewpoint Humidity Pressure Winds Precip Visibility


Weather for websites

WeatherForYou.com, LLC is not responsible for any damages or problems caused by this service. Current weather conditions are obtained from the closest station including government and personal stations which may have varying degrees of accuracy. Weather forecasts are derived from the NOAA NDFD. Like all things, this site belongs to Jesus Christ... He just trusts me to maintain it. If you have any questions or comments email webmaster@weatherforyou.com

Copyright © 2014, WeatherForYou.com LLC. All rights reserved.